Weather History for Lee's Summit, MO

Change the Weather History Date:

Tuesday, April 23, 2013

  Actual Average (KMKC) Record (KMKC)
Temperature  
Mean Temperature 42 °F -  
Max Temperature 51 °F 65 °F 81 °F (2009)
Min Temperature 33 °F 47 °F 35 °F (2013)
Degree Days  
Heating Degree Days 22    
Moisture  
Dew Point 33 °F    
Average Humidity 87    
Maximum Humidity 93    
Minimum Humidity 73    
Precipitation  
Precipitation 0.39 in - - ()
Sea Level Pressure  
Sea Level Pressure 30.09 in    
Wind  
Wind Speed 16 mph (North)    
Max Wind Speed 22 mph    
Max Gust Speed 30 mph    
Visibility 6 miles    
Events Rain , Snow    
Averages and records for this station are not official NWS values.
T = Trace of Precipitation, MM = Missing Value Source: NWS Daily Summary

Daily Weather History Graph

Daily Weather History Graph

Search for Another Location

Airport:

Trip Planner

Search our weather history database for the weather conditions in past years. The results will help you decide how hot, cold, wet, or windy it might be!

Date:

Astronomy

Apr. 23, 2013 Rise Set
Actual Time 6:29 AM CDT 8:02 PM CDT
Civil Twilight 6:01 AM CDT 8:30 PM CDT
Nautical Twilight 5:27 AM CDT 9:04 PM CDT
Astronomical Twilight 4:51 AM CDT 9:41 PM CDT
Moon 5:59 PM CDT (4/23) 4:56 AM CDT (4/23)
Length of Visible Light 14h 29m
Length of Day
13h 33m
Waxing Gibbous, 94% of the Moon is Illuminated
Apr 23
Waxing Gibbous
Apr 25
Full
May 2
Last Quarter
May 9
New
May 17
First Quarter

Hourly Weather History & Observations

Time (CDT) Temp. Windchill Dew Point Humidity Pressure Visibility Wind Dir Wind Speed Gust Speed Precip Events Conditions
12:53 AM 52.0 °F - 48.9 °F 89% 30.01 in 6.0 mi North 12.7 mph - 0.03 in Rain Light Rain
1:04 AM 48.2 °F - 46.4 °F 93% 30.02 in 6.0 mi NNW 13.8 mph - 0.01 in Rain Light Rain
1:53 AM 44.1 °F 37.4 °F 41.0 °F 89% 30.01 in 8.0 mi North 13.8 mph - 0.03 in Rain Light Rain
2:53 AM 41.0 °F 31.6 °F 39.0 °F 93% 30.02 in 6.0 mi NNW 20.7 mph 26.5 mph 0.04 in Rain Light Rain
3:53 AM 39.9 °F 30.2 °F 37.0 °F 89% 30.04 in 7.0 mi North 20.7 mph 26.5 mph 0.02 in Rain Light Rain
4:09 AM 39.2 °F 29.8 °F 35.6 °F 87% 30.03 in 9.0 mi North 18.4 mph 25.3 mph 0.02 in Rain Light Rain
4:29 AM 39.2 °F 29.0 °F 35.6 °F 87% 30.02 in 7.0 mi North 21.9 mph 25.3 mph 0.04 in Rain Rain
5:53 AM 36.0 °F 26.0 °F 34.0 °F 93% 30.04 in 6.0 mi North 17.3 mph 25.3 mph 0.13 in Rain Rain
6:53 AM 36.0 °F 25.3 °F 33.1 °F 89% 30.04 in 10.0 mi North 19.6 mph 24.2 mph 0.06 in Rain Light Rain
7:53 AM 36.0 °F 26.7 °F 33.1 °F 89% 30.06 in 10.0 mi North 15.0 mph 26.5 mph 0.00 in   Overcast
8:53 AM 35.1 °F 24.1 °F 33.1 °F 92% 30.09 in 4.0 mi North 19.6 mph 24.2 mph 0.04 in Snow Light Snow
9:04 AM 35.6 °F 24.5 °F 33.8 °F 93% 30.10 in 2.0 mi North 20.7 mph 26.5 mph 0.01 in Snow Light Snow
9:27 AM 35.6 °F 24.8 °F 32.0 °F 87% 30.07 in 5.0 mi North 19.6 mph - 0.03 in Snow Light Snow
9:53 AM 35.1 °F 24.1 °F 32.0 °F 89% 30.09 in 4.0 mi North 19.6 mph 26.5 mph 0.03 in Snow Light Snow
10:05 AM 35.6 °F 24.8 °F 32.0 °F 87% 30.07 in 2.5 mi NNE 19.6 mph 29.9 mph 0.00 in Snow Light Snow
10:14 AM 35.6 °F 26.2 °F 32.0 °F 87% 30.08 in 2.5 mi North 15.0 mph 25.3 mph 0.00 in Snow Light Snow
10:28 AM 35.6 °F 25.5 °F 32.0 °F 87% 30.08 in 3.0 mi North 17.3 mph 24.2 mph 0.00 in Snow Light Snow
10:46 AM 35.6 °F 24.5 °F 32.0 °F 87% 30.07 in 2.5 mi North 20.7 mph 26.5 mph 0.00 in Snow Light Snow
10:53 AM 35.1 °F 24.1 °F 32.0 °F 89% 30.09 in 2.0 mi North 19.6 mph 26.5 mph 0.00 in Snow Light Snow
11:07 AM 33.8 °F 23.9 °F 32.0 °F 93% 30.09 in 4.0 mi North 15.0 mph 24.2 mph 0.00 in   Overcast
11:53 AM 35.1 °F 26.4 °F 33.1 °F 92% 30.09 in 4.0 mi North 12.7 mph - 0.00 in   Overcast
12:34 PM 35.6 °F 25.5 °F 32.0 °F 87% 30.08 in 3.0 mi North 17.3 mph 27.6 mph N/A   Overcast
12:40 PM 35.6 °F 26.2 °F 32.0 °F 87% 30.08 in 2.5 mi North 15.0 mph 24.2 mph 0.00 in   Overcast
12:53 PM 34.0 °F 23.8 °F 32.0 °F 92% 30.10 in 2.0 mi North 16.1 mph 25.3 mph 0.01 in Snow Light Snow
2:20 PM 35.6 °F 26.2 °F 33.8 °F 93% 30.08 in 2.5 mi North 15.0 mph - N/A   Overcast
2:40 PM 35.6 °F 25.5 °F 33.8 °F 93% 30.09 in 3.0 mi North 17.3 mph 23.0 mph N/A   Overcast
2:53 PM 35.1 °F 24.8 °F 32.0 °F 89% 30.11 in 2.5 mi North 17.3 mph - N/A   Overcast
3:08 PM 35.6 °F 25.9 °F 33.8 °F 93% 30.08 in 3.0 mi North 16.1 mph 21.9 mph N/A   Overcast
3:53 PM 36.0 °F 27.1 °F 32.0 °F 86% 30.10 in 6.0 mi North 13.8 mph - N/A   Overcast
4:53 PM 36.0 °F 28.0 °F 32.0 °F 86% 30.10 in 10.0 mi North 11.5 mph - N/A   Overcast
5:18 PM 37.4 °F 29.8 °F 32.0 °F 81% 30.08 in 10.0 mi North 11.5 mph - N/A   Overcast
5:53 PM 37.0 °F 28.9 °F 32.0 °F 82% 30.10 in 10.0 mi North 12.7 mph 20.7 mph N/A   Overcast
6:53 PM 37.9 °F 30.5 °F 32.0 °F 79% 30.11 in 10.0 mi North 11.5 mph - N/A   Overcast
7:16 PM 37.4 °F 29.8 °F 32.0 °F 81% 30.09 in 10.0 mi North 11.5 mph - N/A   Overcast
7:23 PM 37.4 °F 31.4 °F 32.0 °F 81% 30.10 in 10.0 mi NNW 8.1 mph - N/A   Overcast
7:38 PM 37.4 °F 30.8 °F 32.0 °F 81% 30.10 in 10.0 mi NNW 9.2 mph - N/A   Overcast
7:53 PM 37.0 °F 30.4 °F 32.0 °F 82% 30.12 in 10.0 mi NNW 9.2 mph - N/A   Overcast
8:53 PM 37.0 °F 31.6 °F 32.0 °F 82% 30.14 in 10.0 mi NW 6.9 mph - N/A   Overcast
9:53 PM 37.0 °F 33.3 °F 33.1 °F 86% 30.16 in 10.0 mi WNW 4.6 mph - N/A   Overcast
10:53 PM 39.0 °F 31.4 °F 30.9 °F 73% 30.17 in 10.0 mi NNW 12.7 mph - N/A   Overcast
11:26 PM 35.6 °F 25.5 °F 30.2 °F 81% 30.16 in 9.0 mi NNW 17.3 mph - 0.00 in Snow Light Snow
11:30 PM 33.8 °F 22.8 °F 30.2 °F 87% 30.16 in 4.0 mi NNW 18.4 mph - 0.00 in Snow Light Snow
11:35 PM 33.8 °F 24.8 °F 30.2 °F 87% 30.16 in 2.5 mi NNW 12.7 mph 23.0 mph 0.00 in Snow Light Snow
11:42 PM 33.8 °F 24.8 °F 30.2 °F 87% 30.16 in 4.0 mi NNW 12.7 mph - 0.00 in Snow Light Snow
11:53 PM 34.0 °F 26.6 °F 30.9 °F 89% 30.20 in 4.0 mi NW 9.2 mph - 0.00 in Snow Light Snow